Terminal Aerodrome Forecast
Issued by NWS

Home | Current Version | Previous Version | Graphics & Text | Print | Product List | Glossary On
Versions: 1 2 3 4 5 6 7 8 9 10 11 12 13 14 15 16 17 18 19 20 21 22 23 24 25 26 27 28 29 30
189
FTUS43 KTOP 190531
TAFFOE
TAF
KFOE 190531Z 1906/2006 VRB03KT P6SM OVC035
     FM191000 13004KT 4SM BR OVC006
     FM191200 13004KT 2SM -DZ BR OVC004
     FM191400 14004KT 3/4SM -DZ BR OVC002
     FM191600 14004KT 3SM -DZ BR OVC002
     FM191800 15005KT P6SM OVC005
     FM192000 14006KT P6SM OVC010
     FM200300 VRB03KT P6SM OVC005=

USA.gov is the U.S. government's official web portal to all federal, state and local government web resources and services.